LUMELITE-4 (56309 NORAD) Tracking and Keplerian Element Data

This shows tracking and keplerian element data for the satellite.

Feedback or suggestion? Click here.




ElementValue
Catalog56309
NameLUMELITE-4
Epoch Orbit1897
Epoch Day238.91967366
Epoch Year2023
RAAN109.2701
Inclination9.9928
Eccentricity0.0008824
Argument of Perigee346.5609
Mean Anonmoly13.4369
Mean Motion14.96287662
Decay Rate6.089E-05
L11 56309U 23057B 23238.91967366 .00006089 00000+0 46392-3 0 9994
L22 56309 9.9928 109.2701 0008824 346.5609 13.4369 14.96287662 18979



Live tracking and technical data element details for LUMELITE-4 (NORAD 56309). LUMELITE-4 can be tracked NOW for your location showing map with azimuth and elevation plus other details from your city location.







IsCatalogInMostPopularTable: catalog: 56309, numindb: 18
Update: records affected: 1



GetName: 56309 LUMELITE-4

Hit Count: updated at: Thu, 28 Sep 2023 03:21:25 GMT